Theta_e
314 310 305 306 311 313 312 312 312 308 304 300 297 295 295 294 293 293 292 291 290 290 290 289 288 287 286 285 285 284 283 282 281 282 282 281 281 280 280 280 280 279 279
307 306 312 312 311 311 312 310 306 304 300 297 295 295 294 293 293 292 291 290 290 290 289 288 287 286 285 285 284 283 283 282 280 280 281 280 280 280 279 278 277 278 279
311 311 310 311 311 311 309 307 304 301 298 296 296 295 293 293 292 291 290 290 289 289 288 287 286 286 285 284 283 283 282 281 281 279 279 279 278 277 277 277 277 277 278
311 310 311 311 311 309 308 303 302 299 298 297 295 294 293 292 291 290 289 289 289 288 287 287 286 285 284 283 283 282 281 281 280 279 278 277 277 277 276 276 276 276 276
310 311 311 311 310 308 306 303 301 299 298 296 294 293 292 291 290 289 289 288 288 288 287 286 285 284 284 283 282 282 280 279 278 277 277 277 276 275 275 274 274 274 274
311 311 311 310 309 307 303 302 301 299 298 296 294 293 292 291 290 289 288 288 287 287 286 285 284 283 283 282 281 280 278 277 277 276 276 275 274 273 273 272 272 272 272
313 311 310 309 308 304 303 302 301 299 297 296 294 292 291 290 290 289 288 287 286 286 285 284 284 283 282 281 280 279 278 277 276 275 275 274 273 273 272 271 271 271 271
311 311 309 308 306 303 303 302 300 298 297 295 294 292 291 290 289 288 288 287 286 285 285 284 283 282 281 280 280 279 278 277 277 276 275 274 273 272 271 271 271 271 272
310 310 309 307 304 303 302 301 299 298 296 295 294 292 291 290 288 288 287 286 285 285 284 283 282 282 280 279 278 278 277 277 276 276 275 273 273 272 271 271 271 271 272
311 310 307 303 302 302 301 300 299 297 296 295 295 294 292 290 288 287 286 285 285 284 284 282 281 281 280 278 278 277 276 276 276 275 274 273 272 272 271 271 270 270 269
307 306 304 302 301 301 301 300 298 296 295 295 295 293 291 289 287 286 285 284 284 283 283 282 281 279 279 278 277 276 275 276 275 274 273 272 272 271 271 270 270 269 269
306 304 302 301 301 301 300 299 297 295 295 295 294 293 292 290 288 286 284 283 283 282 282 281 280 279 278 277 276 276 275 275 274 273 272 272 271 271 270 270 270 269 268
303 303 302 301 301 300 299 297 295 295 295 295 294 293 293 290 288 285 284 283 282 282 282 280 279 279 277 277 276 275 275 274 273 273 272 271 271 270 270 269 269 269 269
302 302 301 300 299 298 296 295 295 295 294 294 293 293 292 291 289 286 284 283 282 281 281 280 279 278 277 276 275 274 274 273 273 273 272 270 270 269 269 269 269 269 269
298 298 297 297 296 295 295 295 294 294 293 293 293 291 291 290 290 287 284 282 281 280 279 279 278 277 276 275 274 273 273 273 272 271 270 270 269 269 269 268 268 268 268
295 295 295 295 295 295 295 295 294 293 293 292 291 291 291 290 289 288 285 283 281 279 278 278 278 277 275 274 273 273 273 272 271 270 270 269 268 268 267 267 267 267 266
294 293 293 293 293 293 293 293 293 293 292 291 290 290 289 288 287 286 284 280 278 277 277 278 278 277 274 273 273 273 273 272 271 270 269 268 267 267 266 266 266 266 266
292 292 292 291 291 290 290 289 289 289 289 289 289 287 286 285 283 283 280 279 279 278 277 277 277 275 273 273 273 273 272 271 270 269 268 267 266 266 266 266 265 265 265
292 292 291 291 290 290 290 289 289 288 288 288 288 287 286 284 282 280 279 279 278 278 277 277 276 274 272 272 272 272 271 270 269 268 267 266 265 265 265 265 264 265 264
291 291 290 290 290 290 289 288 288 287 287 287 286 286 285 284 282 281 280 279 278 278 277 276 275 273 272 272 272 271 270 268 268 267 266 266 265 264 264 264 264 264 264
291 291 291 291 291 290 290 289 288 287 286 286 285 285 283 282 281 280 279 279 278 277 276 275 273 272 271 271 271 270 269 268 267 267 266 266 265 265 264 264 264 263 263
291 291 291 290 290 290 289 288 287 285 284 284 284 283 282 281 280 280 279 278 276 276 275 274 272 271 271 271 270 269 268 267 266 266 266 265 265 264 264 264 263 263 263
290 290 290 289 289 289 288 287 286 285 284 283 282 282 281 280 278 278 277 276 275 274 274 272 271 272 271 269 268 268 267 267 266 266 266 265 265 264 264 264 263 263 263
289 288 288 288 287 287 286 285 284 283 281 281 280 279 279 278 277 276 275 274 274 273 272 271 272 271 269 268 268 267 267 266 266 266 266 265 265 265 265 264 263 263 262
287 286 286 285 284 284 283 282 280 279 279 278 278 277 277 276 275 275 274 273 273 272 272 272 270 268 268 267 266 266 266 266 266 266 266 266 265 265 265 264 263 263 262
283 282 281 281 281 280 279 279 278 277 276 276 275 275 275 274 274 273 272 272 271 271 270 270 269 269 267 266 266 266 266 266 266 267 266 266 266 266 265 264 264 263 263
Wind_Speed
26 26 24 22 16 6 2 11 12 6 7 7 7 6 8 8 9 8 8 8 8 9 10 10 11 12 12 14 15 17 19 23 27 32 31 31 33 35 37 37 38 40 40
24 26 19 10 6 11 11 7 7 7 8 8 8 8 9 9 9 9 9 9 9 10 11 12 12 13 14 16 18 19 21 23 28 33 33 31 32 35 37 41 42 41 40
20 18 17 16 14 13 7 8 9 9 9 9 10 10 11 11 11 10 10 10 10 11 12 13 14 15 16 18 19 21 23 25 28 32 33 32 34 37 41 42 43 43 41
24 18 13 14 15 10 9 11 11 11 12 12 12 12 13 13 12 12 11 11 12 13 15 15 16 17 18 19 20 23 25 27 28 28 31 34 35 37 40 45 47 45 46
21 18 15 15 12 11 13 13 13 15 15 13 14 14 15 14 14 13 13 13 14 16 17 17 17 18 19 20 21 24 25 27 27 28 31 33 35 39 41 43 45 47 48
19 18 16 14 14 15 15 15 17 16 16 15 16 16 17 17 17 16 15 16 17 17 18 19 18 18 18 20 21 21 23 25 25 27 29 30 33 35 37 39 41 45 50
18 18 16 16 17 17 18 18 18 17 17 18 18 19 19 20 20 19 18 18 18 19 20 20 19 20 20 19 20 20 22 23 24 25 26 28 32 33 34 37 38 39 41
18 18 19 19 18 20 20 20 19 19 19 20 20 21 22 23 23 22 22 21 21 22 22 21 20 20 20 21 21 21 22 23 24 24 25 28 29 30 30 32 36 39 40
22 21 20 21 22 22 22 20 20 21 22 21 22 24 25 26 26 26 26 24 24 24 24 22 20 20 20 22 22 22 22 24 24 24 24 25 26 27 28 32 34 38 45
20 22 23 23 23 23 21 21 22 24 23 24 25 26 28 28 28 29 28 27 27 27 26 23 21 21 21 22 23 22 23 25 25 25 25 24 25 26 26 27 30 32 33
22 23 22 23 23 22 23 24 24 24 25 26 28 28 30 30 29 31 31 31 30 28 27 24 22 22 22 21 22 22 23 27 24 27 27 26 25 24 24 25 26 27 29
19 20 21 21 22 23 24 24 24 26 28 29 30 31 31 30 30 32 32 32 31 31 28 25 23 23 22 21 22 23 25 25 26 27 27 27 26 24 24 25 26 26 24
16 17 19 21 22 22 23 24 27 28 31 32 33 33 32 30 30 32 32 32 32 33 29 26 24 24 22 22 23 23 24 24 26 28 28 27 26 26 26 27 26 28 28
13 15 18 20 22 24 25 28 30 32 34 34 35 36 34 32 32 32 33 33 32 32 30 28 26 24 23 24 23 23 23 25 27 28 27 26 26 26 25 26 29 30 33
18 19 21 23 25 27 30 32 34 35 36 37 37 38 37 36 34 32 32 33 32 31 31 30 29 27 25 24 23 22 23 25 26 25 25 26 26 27 25 25 26 28 29
20 21 22 24 27 30 32 35 36 37 38 38 38 39 38 37 35 33 33 33 32 30 33 34 31 27 25 24 23 22 24 24 25 24 25 26 27 27 26 23 24 25 28
22 23 24 26 28 30 32 35 38 36 38 36 37 38 38 37 34 32 30 27 24 22 31 30 28 25 24 24 23 24 24 24 24 24 25 26 26 26 24 23 23 24 24
24 25 26 28 29 30 32 34 36 37 38 37 33 32 33 34 31 30 24 22 28 30 34 35 31 27 25 24 23 24 24 24 23 24 24 24 24 26 24 21 20 22 22
20 21 22 24 25 27 29 31 33 34 35 35 33 30 29 30 31 28 28 31 35 38 36 34 29 27 25 23 23 24 25 23 23 24 23 23 22 24 21 19 19 19 19
19 20 22 24 25 26 27 29 30 32 33 33 33 30 27 26 30 33 32 38 40 36 34 33 31 28 24 23 23 24 23 21 21 21 21 21 20 20 19 18 17 17 16
20 22 25 27 29 30 31 32 32 32 33 33 33 29 27 28 30 31 34 40 42 37 34 29 28 25 23 22 23 22 20 18 17 17 16 15 16 15 15 15 15 14 14
25 27 29 31 33 33 34 35 34 34 34 34 33 30 25 28 31 31 31 31 34 35 34 30 26 22 21 23 22 18 16 13 13 13 12 12 12 12 12 12 12 11 10
30 32 34 36 38 39 39 38 38 37 37 36 33 31 26 27 30 30 27 26 30 32 31 26 22 21 22 20 16 16 12 10 10 9 8 8 9 10 11 11 11 9 9
36 38 40 41 41 42 42 42 41 39 37 36 34 31 28 25 26 26 26 27 24 25 24 23 22 21 17 15 14 11 8 7 6 4 3 5 7 9 9 9 9 8 9
39 41 41 42 43 42 42 40 39 37 35 34 33 30 28 25 24 24 25 26 25 25 24 23 20 15 15 12 10 7 6 5 2 2 3 5 7 9 10 9 9 9 8
40 41 42 42 41 41 40 40 39 37 36 32 30 28 26 24 22 22 24 26 26 24 22 18 15 14 12 11 9 6 5 4 4 2 5 9 10 10 10 9 9 9 9
Wind_Direction
176 172 158 152 152 159 284 290 273 272 282 269 267 275 283 297 310 314 316 322 324 326 327 327 324 323 322 320 322 325 325 325 323 324 329 331 334 334 336 336 337 342 344
157 152 150 153 168 239 247 226 254 260 255 259 264 273 284 295 299 300 304 311 313 317 319 318 317 317 317 320 322 321 321 325 325 324 329 331 331 332 334 338 340 341 342
161 165 182 223 238 246 228 259 257 251 258 260 265 275 283 287 285 289 295 300 307 312 311 311 312 312 314 315 318 321 325 325 325 324 324 330 333 336 337 336 336 339 343
185 200 237 240 242 227 258 256 259 258 257 260 267 273 275 276 280 286 289 299 304 306 305 305 303 305 308 314 320 321 322 323 321 321 326 330 335 337 335 335 335 339 339
217 234 241 230 226 249 257 263 258 257 260 266 268 271 274 279 280 282 288 293 296 297 295 296 297 302 311 317 319 317 318 320 322 329 327 329 334 335 336 334 332 334 335
232 238 222 225 249 259 260 261 258 260 265 268 270 274 277 277 277 280 282 283 285 287 289 291 295 303 306 309 311 314 317 322 323 325 326 328 330 332 330 331 330 333 332
225 215 227 246 258 262 263 262 264 267 269 270 273 277 279 277 276 276 277 277 278 282 282 285 290 297 298 300 307 310 312 318 319 322 322 326 326 328 327 326 327 328 327
220 231 244 257 261 262 266 268 268 269 271 273 277 278 277 277 276 276 276 276 276 277 277 280 286 290 293 300 303 308 314 316 316 321 320 320 321 322 323 321 325 322 326
237 248 260 265 262 264 268 271 271 272 272 277 280 281 282 279 275 274 274 273 272 273 274 275 280 286 290 293 298 306 311 311 314 316 315 316 316 319 320 320 326 332 332
258 267 266 261 263 267 272 273 272 271 275 279 282 283 280 278 275 274 272 271 271 270 271 272 278 284 285 288 295 303 306 306 310 313 314 314 316 317 318 322 328 332 334
263 263 261 263 267 273 274 272 272 275 278 280 282 282 281 280 276 274 273 270 270 268 268 269 273 275 278 284 290 300 302 305 313 311 312 314 314 313 319 327 329 330 329
262 261 264 270 272 271 270 271 273 275 278 283 285 284 284 281 278 273 271 271 270 267 268 267 267 267 272 279 286 292 294 304 306 309 310 312 313 320 325 326 326 325 328
262 266 267 268 271 273 274 275 277 281 283 285 284 285 285 285 281 277 274 270 268 268 267 262 261 264 268 273 279 285 293 299 303 305 308 311 316 321 323 323 324 322 324
277 278 277 277 278 279 280 282 283 285 286 285 286 286 287 285 280 276 273 271 267 262 262 260 260 263 267 271 274 280 291 297 301 305 307 309 313 314 320 324 325 324 323
286 285 285 286 285 284 284 286 285 285 285 286 286 285 284 283 285 279 273 268 264 260 257 255 257 262 265 268 273 282 289 293 298 302 302 306 309 313 321 323 321 322 326
294 293 291 287 284 283 284 285 285 287 287 286 285 285 285 285 283 279 275 269 261 250 248 250 255 257 261 265 272 280 288 294 299 301 302 305 308 312 316 320 317 321 327
306 304 300 297 294 293 292 291 292 291 289 287 286 286 285 285 281 278 271 258 246 235 243 252 254 257 259 265 274 283 290 295 297 298 301 303 304 306 310 316 317 321 325
304 303 302 300 298 297 296 295 295 295 295 293 288 283 279 278 274 274 262 240 238 232 242 250 253 259 260 265 274 283 290 294 297 298 299 301 301 300 306 310 312 317 323
304 305 305 305 305 304 303 302 300 298 297 296 294 286 279 272 267 257 255 242 238 242 251 251 252 258 262 268 276 284 290 294 296 295 296 297 296 295 300 301 308 314 321
320 319 317 315 314 312 309 307 305 303 301 299 296 295 285 270 260 251 244 243 241 252 254 252 252 258 263 270 279 286 289 294 294 295 297 299 297 296 297 299 306 311 317
321 320 320 320 319 316 313 310 307 303 300 298 297 295 287 275 267 261 252 243 248 254 255 253 252 256 263 272 279 283 289 292 293 296 301 301 297 296 291 295 302 308 314
317 316 314 313 311 310 308 306 304 302 300 298 297 293 286 274 270 264 261 254 249 252 251 253 252 255 264 272 277 282 284 288 293 301 307 306 305 302 296 297 300 304 308
311 310 310 310 309 307 304 302 300 298 297 295 293 290 283 272 268 266 262 257 248 245 244 245 245 253 261 268 271 274 278 288 300 306 313 313 313 307 303 304 299 297 301
311 310 309 308 306 304 303 302 300 298 296 294 292 289 284 276 267 262 254 251 249 241 237 238 243 251 259 260 265 269 283 293 293 299 326 336 331 319 312 305 296 295 302
309 309 308 307 305 304 302 301 300 299 298 295 293 290 284 276 266 257 249 244 243 238 238 237 243 249 249 249 248 260 281 283 269 278 319 328 332 332 323 312 301 296 298
315 313 312 310 309 307 306 305 304 304 303 302 296 290 285 276 267 258 249 242 238 236 234 238 241 245 237 228 229 242 255 239 217 267 321 325 331 329 325 319 308 303 301